Погода в Риве-деле-Гарде

Италия     45°53′18″N   10°50′27″E
темп.,
°C
ветер,
м/с
пор.,
м/с
влажн.,
%
обл.,
%
осадки,
мм/ч
давл.,
гПа
погр.,
м
13 июня, вс
вс1323:00+13сз2286100 0.2 102017
02:00+11сз327721 0.2 102023
05:00+11ссз327596 0.0 101928
08:00+16с116315 0.0 1019118
11:00+21вюв22445 0.0 10181389
14:00+23юв33425 0.0 10171856
17:00+22ю325810 0.2 10171126
20:00+17ююз23926 1.6 101997
14 июня, пн
пн1423:00+14сз00931 0.4 102111
02:00+13ссз119790 0.9 102213
05:00+13юв1110098 0.4 102185
08:00+13ю119877 0.5 1021146
11:00+16ююв228267 0.1 1020614
14:00+18ю327885 0.2 1019703
17:00+19ю337479 0.1 1017797
20:00+16ю238845 0.1 1018276
15 июня, вт
вт1523:00+13ююз019871 0.1 102047
02:00+13юв119998 0.2 102074
05:00+13юв1110085 0.2 102071
08:00+13юв119895 0.3 1021183
11:00+15ю229087 0.3 1021486
14:00+18ю327194 0.4 1019948
17:00+19ю327165 0.1 1018844
20:00+16ю238686 0.2 1019318
16 июня, ср
ср1623:00+14юз119368 0.1 102019
02:00+12зсз109625 0.1 102011
05:00+12сз119473 0.0 101910
08:00+14ююв008994 0.0 1019142
11:00+18ююв217242 0.1 1018809
14:00+19ю327665 1.2 1018785
17:00+18ююз238488 2.2 1018659
20:00+16ююз2386100 2.7 1018124
17 июня, чт
чт1723:00+15зюз119481 0.4 101918
02:00+14зюз119559 0.8 101915
05:00+14вюв009697 0.3 101911
08:00+15ююв119416 0.8 1019159
11:00+17ююв218553 1.6 1019616
14:00+18ю238680 4.1 1019565
17:00+18ю2385100 2.2 1019687
20:00+16ю229348 3.0 1019107